Welcome to the New NWS' Forecast!
Most changes are behind the scenes, but click here for differences you might notice.
Latest weather observations around

Joplin, Joplin Regional Airport (KJLN)

Using English Units (Switch to International System of Units)
Date/ Time (CDT) Wind (mph) Vis. (mi) Weather Sky Cond. Temp (°F) Rel. Humidity Wind Chill (°F) Heat Index (°F) Pressure Precip. (in)
Air Dwpt 6 hour Altimeter (inHg) Sea level (inHg) 1 hr 3 hr 6 hr
Max Min
Jul 17 05:53 Calm 10 Clear CLR 72 71     97%   73 30.04 30      
Jul 17 04:53 Calm 3 Fog/Mist CLR 72 72     100%   74 30.02 29.99      
Jul 17 04:42 Calm 1.5 Clear   72 71     97%   73 30.02        
Jul 17 03:53 Calm 3 Clear   72 71     97%   73 30.03 29.99      
Jul 17 03:47 Calm 1 Clear   72 72     100%   73 30.03        
Jul 17 03:43 Calm 0.5 Fog CLR 71 71     100%   73 30.02        
Jul 17 03:35 Calm 1.75 Fog/Mist CLR 72 71     97%   73 30.02        
Jul 17 02:53 Calm 7 Clear CLR 73 72     96%   75 30.03 29.99      
Jul 17 01:53 Calm 5 Fog/Mist CLR 73 72     96%   75 30.04 30      
Jul 17 00:53 NW 3 10 Clear CLR 74 72     94%   75 30.04 30     0
Jul 16 23:53 Calm 10 Clear CLR 76 74     94%   78 30.04 30      
Jul 16 22:53 SSE 3 10 Clear CLR 77 74     90%   79 30.04 30      
Jul 16 21:53 Calm 10 Clear CLR 76 70     82%   77 30.03 29.99   0  
Jul 16 20:53 Calm 10 Clear CLR 78 70     76%   79 30 29.97      
Jul 16 19:53 Calm 10 Partly Cloudy FEW050 FEW070 SCT110 79 69     72%   80 30 29.97 0    
Jul 16 18:53 Calm 10 Partly Cloudy SCT095 83 73     72%   89 30.01 29.97     0
Jul 16 18:19 SW 7 10 Mostly Clear FEW110 84 72     67%   90 30        
Jul 16 17:53 SSW 5 10 Thunderstorms SCT055 85 73     68%   92 30.01 29.97      
Jul 16 17:35 S 9 10 Thunderstorms SCT055 86 74     67%   94 29.99        
Jul 16 16:53 S 8 10 Clear CLR 87 74     65%   95 29.99 29.96      
Jul 16 15:53 N 6 10 Clear CLR 90 73     58%   98 29.98 29.94   0  
Jul 16 15:27 N 6 10 Mostly Clear FEW042 90 73     58%   98 30        
Jul 16 15:05 N 9 10 Thunderstorms SCT042 92 73     54%   101 30        
Jul 16 14:53 N 10 10 Partly Cloudy SCT045 93 73     52%   102 30 29.96 0    
Jul 16 13:53 NNW 9 10 Light Rain SCT044 BKN055 BKN075 94 75     54%   106 30.01 29.97 0    
Jul 16 12:53 WNW 7 10 Partly Cloudy SCT049 93 73     52%   102 30.04 29.99      
Jul 16 11:53 W 7 10 Clear CLR 92 73     54%   101 30.04 30      
Jul 16 10:53 W 7 10 Clear CLR 90 73     58%   98 30.05 30.01      
Jul 16 09:53 WSW 7 10 Clear CLR 88 73     61%   96 30.06 30.01      
Jul 16 08:53 WSW 9 10 Clear CLR 85 72     65%   91 30.05 30.01      
Jul 16 07:53 SW 6 10 Clear CLR 82 72     72%   87 30.03 29.99      
Jul 16 06:53 SSW 7 10 Clear CLR 77 71     82%   78 30.01 29.97      
Jul 16 05:53 SSW 5 10 Clear CLR 75 70     84%   76 30 29.96      
Jul 16 04:53 S 5 10 Clear CLR 75 71     88%   76 29.99 29.95      
Jul 16 03:53 SSE 3 10 Clear CLR 76 71     85%   77 29.98 29.94      
Jul 16 02:53 SSE 3 10 Clear CLR 76 70     82%   77 29.99 29.95      
Jul 16 01:53 SE 7 10 Clear CLR 79 70     74%   82 30 29.96      
Jul 16 00:53 SE 7 10 Mostly Clear FEW085 80 69     69%   83 30.01 29.97      
Jul 16 00:21 ESE 10 10 Mostly Cloudy FEW055 BKN090 BKN110 81 69     67%   84 30.01        
Jul 16 00:08 SSE 9 10 Thunderstorms SCT055 BKN070 OVC090 81 70     69%   84 30.01        
Jul 15 23:53 ESE 9 10 Cloudy OVC060 81 70     69%   84 30.02 29.98      
Jul 15 23:46 E 8 10 Mostly Cloudy BKN065 80 70     71%   83 30.02        
Jul 15 23:18 SE 3 10 Thunderstorms FEW070 BKN120 81 71     72%   85 30.02        
Jul 15 22:53 Calm 10 Clear CLR 82 72     72%   87 30.01 29.97      
Jul 15 21:53 SSE 5 10 Mostly Clear FEW120 81 71     72%   85 29.98 29.94      
Jul 15 20:53 E 3 10 Clear CLR 83 70     65%   87 29.96 29.93      
Jul 15 19:53 5 10 Partly Cloudy SCT080 86 70     59%   91 29.96 29.92      
Jul 15 18:53 ENE 6 10 Clear CLR 88 71     57%   94 29.95 29.91     0
Jul 15 17:53 NE 10 10 Clear CLR 93 70     47%   99 29.95 29.91      
Jul 15 16:53 NNW 6 10 Partly Cloudy FEW080 SCT110 89 69     52%   94 29.95 29.92 0    
Notice The following observation data may not be complete
Jul 15 16:29 N 10 10 Light Rain SCT080 BKN100   69      %     29.97   0    
Jul 15 15:53 W 13 10 Thunderstorms SCT049 SCT060 88 73     61%   96 29.96 29.93      
Jul 15 14:53 W 5 10 Mostly Clear FEW049 95 73     49%   105 29.99 29.95      
Jul 15 13:53 SW 5 10 Partly Cloudy FEW045 SCT060 92 73     54%   101 30.01 29.97      
Jul 15 12:53 5 10 Partly Cloudy FEW038 SCT075 92 74     56%   102 30.02 29.98      
Jul 15 11:53 SSW 7 10 Clear CLR 90 73     58%   98 30.03 29.99      
Jul 15 10:53 W 7 10 Clear CLR 88 72     59%   95 30.03 29.99      
Jul 15 09:53 SSW 8 10 Clear CLR 84 73     70%   90 30.03 29.99      
Jul 15 08:53 S 6 10 Clear CLR 80 74     82%   85 30.04 30      
Jul 15 07:53 5 10 Clear CLR 75 73     94%   77 30.03 30      
Jul 15 06:53 Calm 9 Partly Cloudy FEW070 SCT080 73 72     96%   75 30.03 30 0   0
Jul 15 05:53 3 6 Light Rain and Fog/Mist FEW025 SCT055 BKN070 74 73     97%   76 30.02 29.99 0    
Jul 15 04:53 Calm 10 Mostly Cloudy FEW047 BKN060 BKN075 75 73     94%   77 30.01 29.97 0    
Jul 15 04:10 SE 7 3 Light Rain and Fog/Mist SCT035 BKN050 OVC075 74 72     94%   75 30   0    
Jul 15 04:07 SE 7 1.75 Heavy Rain and Fog/Mist SCT033 BKN050 OVC070 74 72     94%   75 30   0    
Jul 15 03:53 E 3 2.5 Rain and Fog/Mist SCT035 BKN050 OVC080 74 72     94%   75 30.01 29.97 0 0  
Jul 15 03:31 3 10 Light Rain BKN060 BKN070 OVC110 74 72     94%   75 30.01   0    
Jul 15 03:16 Calm 10 Light Rain BKN055 OVC070 74 72     94%   75 30.01   0    
Jul 15 02:53 SSE 6 10 Mostly Cloudy BKN055 BKN070 74 71     91%   75 30 29.96      
Jul 15 01:53 Calm 10 Mostly Clear FEW060 73 71     94%   74 30 29.97      
Jul 15 00:53 Calm 10 Mostly Clear FEW085 72 70     93%   73 30.01 29.97      
Jul 14 23:53 Calm 10 Clear CLR 73 70     90%   74 30.02 29.98      
Jul 14 22:53 S 6 10 Clear CLR 76 71     85%   77 30.02 29.98      
Jul 14 21:53 Calm 10 Mostly Clear FEW085 76 71     85%   77 29.99 29.96      
Jul 14 20:53 S 6 10 Clear CLR 77 71     82%   78 29.99 29.95      
Jul 14 19:53 S 6 10 Clear CLR 77 71     82%   78 29.98 29.95      
Jul 14 18:53 S 13 10 Clear CLR 79 69     72%   80 29.99 29.95     0
Jul 14 17:53   10 Cloudy FEW075 OVC095 80 68     67%   83 30 29.96 0    
Jul 14 17:35   10 Light Rain FEW075 OVC095 80 68     67%   83 30   0    
Jul 14 17:12   9 Thunderstorms and Rain FEW055 SCT080 BKN100 83 74     74%   89 30   0    
Jul 14 16:53 WNW 13 10 Mostly Cloudy BKN100 88 72     59%   95 29.99 29.96      
Jul 14 15:53 SSW 7 10 Partly Cloudy SCT100 94 71     48%   101 29.99 29.95      
Jul 14 14:53 WSW 9 10 Clear CLR 94 71     48%   101 30.02 29.98      
Jul 14 13:53 S 6 10 Mostly Clear FEW110 90 71     54%   96 30.05 30.01      
Jul 14 12:53 SW 7 10 Mostly Clear FEW070 90 71     54%   96 30.07 30.03     0
Jul 14 11:53 5 10 Partly Cloudy SCT120 85 71     63%   90 30.08 30.04      
Jul 14 10:53 SSW 9 10 Mostly Cloudy BKN090 BKN110 84 71     65%   89 30.08 30.04      
Jul 14 09:53 S 8 10 Mostly Cloudy BKN100 BKN110 82 72     72%   87 30.07 30.04 0 0  
Jul 14 08:53 SW 9 10 Light Rain FEW070 BKN110 78 73     85%   80 30.08 30.05 0    
Jul 14 07:53 WNW 6 10 Cloudy OVC060 79 72     79%   82 30.08 30.03 0    
Jul 14 06:53 S 9 10 Partly Cloudy SCT060 80 71     74%   84 30.05 30.01      
Jul 14 05:53 S 7 10 Mostly Clear FEW060 76 70     82%   77 30.05 30.01      
May 15 06:53 NNW 6 10 Clear CLR 61 60     97%     29.92 29.89     1
May 14 05:53 S 10 10 Clear CLR 69 63     81%     29.95 29.92      
May 13 10:53   10 Clear CLR 80 68     67%   83 30.03 30      
May 12 18:53 S 17 10 Clear CLR 81 65     58%   83 29.91 29.88      
May 12 08:53 S 11 10 Clear CLR 74 64     71%   74 29.96 29.93      
May 12 00:53 SSE 8 10 Clear CLR 70 61     73%     29.89 29.86      
Jun 12 01:53 S 9 10 Clear CLR 73 65     76%   74 29.92 29.88      
Jun 11 21:53 S 10 10 Clear CLR 79 65     62%   80 29.9 29.86      
Jun 11 11:53   10 Partly Cloudy SCT032 84 71     65%   89 29.94 29.9      
Jun 11 10:53   10 Clear CLR 83 70     65%   87 29.93 29.89      
Jun 10 19:53 S 15 10 Clear CLR 81 67     62%   83 29.83 29.79      
Jun 10 17:53   10 Clear CLR 85 68     57%   88 29.82 29.79      
Jun 10 11:53   10 Clear CLR 82 67     60%   85 29.9 29.86      
Jun 09 14:53 S 13 10 Partly Cloudy SCT055 80 61     52%   81 29.91 29.89      
Jun 09 00:53 SE 3 10 Clear CLR 60 55     83%     29.94 29.91      
Jun 08 23:53 S 3 10 Clear   62 56     80%     29.94 29.92      
Jun 08 12:53 WNW 5 10 Clear CLR 79 53     41%   78 30.05 30.03      
Jun 08 06:53 Calm 10 Clear CLR 56 53     90%     30.06 30.04      
Jun 07 21:53 Calm 10 Clear CLR 64 56     75%     30.05 30.02      
Jun 07 14:53 NNE 9 10 Clear CLR 81 52     37%   80 30.06 30.03      
Jun 07 11:53 E 9 10 Mostly Clear FEW060 79 49     35%   78 30.09 30.07      
Jun 06 11:53 N 5 10 Clear CLR 82 64     55%   84 29.96 29.93      
Jun 06 10:53 N 5 10 Clear CLR 79 66     65%   80 29.96 29.92      
Notice The following observation data may not be complete
Jun 06 04:02   2 Fog/Mist CLR          %              
Jun 05 19:53 Calm 10 Mostly Cloudy BKN075 84 70     63%   88 29.83 29.79